Погода в Байгулове

Россия / Чувашская Республика     55°50′20″N   47°57′42″E
темп.,
°C
ветер,
м/с
пор.,
м/с
влажн.,
%
обл.,
%
осадки,
мм/ч
давл.,
гПа
погр.,
м
14 мая, пт
пт1400:00+16ю4128084 0.1 1021226
03:00+14ююв388759 0.9 1021137
06:00+16юв388298 0.3 1020242
09:00+21ююв575964 0.3 1020501
12:00+24ю5751100 0.0 1019886
15:00+25ю57512 0.0 10191321
18:00+23юз36692 0.0 1018185
21:00+18ю1182100 0.0 101911
15 мая, сб
сб1500:00+17ююв228594 0.0 101911
03:00+16ююв3781100 0.0 1018106
06:00+17ююв41075100 0.1 1018215
09:00+22ю61056100 0.1 1018455
12:00+27ююз7124263 0.0 10171159
15:00+27ююз711436 0.0 10171277
18:00+23ю511585 0.0 1016254
21:00+18ю4126733 0.0 1016183
16 мая, вс
вс1600:00+17ю414645 0.0 1016219
03:00+15ю396474 0.0 1016128
06:00+17ю4106670 0.0 1016217
09:00+22ююз5105384 0.0 1016465
12:00+26ююз6942100 0.0 10161081
15:00+27юз59445 0.0 10152085
18:00+23зюз386140 0.0 1015229
21:00+18з228498 0.0 101516
17 мая, пн
пн1700:00+16з118817 0.0 101611
03:00+15зсз118899 0.0 101711
06:00+18ююв1180100 0.0 101777
09:00+23ю236095 0.0 1017551
12:00+26юз3446100 0.0 10171183
15:00+28зюз25419 0.0 10161300
18:00+25ссз22593 0.0 101632
21:00+21ююв225818 0.0 101611
18 мая, вт
вт1800:00+17ю226364 0.0 101711
03:00+16ю226633 0.0 101711
06:00+19юв226396 0.0 101685
09:00+24ююв3452100 0.0 1016410
12:00+26ю3443100 0.0 1016626
15:00+28ююв343596 0.0 10152097
18:00+24ююв36580 0.0 1015124
21:00+20ююв33620 0.0 101521